Orbital Elements at Epoch 2459200.5 (2020-Dec-17.0) TDB
Reference: JPL 16 (heliocentric ecliptic J2000)
Element | Value | Uncertainty (1-sigma) | Units |
e | .2019507462832829 | 4.6196e-08 | |
a | 3.137692300905965 | 2.794e-08 | au |
q | 2.504032999130695 | 1.5442e-07 | au |
i | .5445093984527627 | 6.164e-06 | deg |
node | 198.696694831551 | 0.00046165 | deg |
peri | 132.1433911330024 | 0.00046191 | deg |
M | 304.4957191395752 | 1.8879e-05 | deg |
tp | 2459513.495385163909 (2021-Oct-25.99538516) | 0.00010923 | TDB |
period | 2030.083750519291 5.56 | 2.7116e-05 7.424e-08 | d yr |
n | .1773325853713733 | 2.3686e-09 | deg/d |
Q | 3.771351602681235 | 3.3583e-08 | au |
|
| | Orbit Determination Parameters
Additional Information
|